Powrót do katalogu

KUIPER-00250

AktywnyŁącznośćLEO
NORAD 67155·PAYLOAD·🇺🇸 United States

Wystrzelony Dec 15, 2025 z Cape Canaveral Space Force Station

Loading…

Następne Przeloty (najbliższe 24 godziny)

TLE

ŚwieżeSource: CelesTrak SupGP

Epoka: Sep 14, 2026, 20:29 UTC

1 67155C 25301Y   26257.85365741  .00000658  00000+0  86181-4 0  2579
2 67155  51.8989 314.1075 0000667  61.2214  20.0036 14.79930197    14

Śledź KUIPER-00250 w czasie rzeczywistym z AllMySat

Download on the App Store